Weather History for Key West NAF, FL

Change the Weather History Date:

Sunday, August 25, 2013

  Actual Average Record
Temperature  
Mean Temperature 86 °F -  
Max Temperature 90 °F 89 °F 93 °F (1952)
Min Temperature 82 °F 79 °F 69 °F (2006)
Cooling Degree Days 21    
Growing Degree Days 36 (Base 50)    
Moisture  
Dew Point 76 °F    
Average Humidity 75    
Maximum Humidity 85    
Minimum Humidity 57    
Precipitation  
Precipitation 0.01 in - - ()
Sea Level Pressure  
Sea Level Pressure 30.07 in    
Wind  
Wind Speed 9 mph (East)    
Max Wind Speed 15 mph    
Max Gust Speed 22 mph    
Visibility 10 miles    
Events Thunderstorm    
Averages and records for this station are not official NWS values.
T = Trace of Precipitation, MM = Missing Value Source: NWS Daily Summary

Daily Weather History Graph

Daily Weather History Graph

Search for Another Location

Airport:

Trip Planner

Search our weather history database for the weather conditions in past years. The results will help you decide how hot, cold, wet, or windy it might be!

Date:

Astronomy

Aug. 25, 2013 Rise Set
Actual Time 7:05 AM EDT 7:51 PM EDT
Civil Twilight 6:42 AM EDT 8:15 PM EDT
Nautical Twilight 6:14 AM EDT 8:42 PM EDT
Astronomical Twilight 5:46 AM EDT 9:10 PM EDT
Moon 11:01 PM EDT (8/25) 11:28 AM EDT (8/25)
Length of Visible Light 13h 33m
Length of Day
12h 46m
Waning Gibbous, 76% of the Moon is Illuminated
Aug 25
Waning Gibbous
Aug 28
Last Quarter
Sep 5
New
Sep 12
First Quarter
Sep 19
Full

Hourly Weather History & Observations

Time (EDT) Temp. Heat Index Dew Point Humidity Pressure Visibility Wind Dir Wind Speed Gust Speed Precip Events Conditions
12:53 AM 82.9 °F 90.2 °F 75.0 °F 77% 30.08 in 10.0 mi East 9.2 mph - N/A   Partly Cloudy
1:53 AM 82.9 °F 90.8 °F 75.9 °F 79% 30.06 in 10.0 mi East 10.4 mph - N/A   Partly Cloudy
2:53 AM 82.9 °F 91.8 °F 77.0 °F 82% 30.04 in 10.0 mi ESE 9.2 mph - N/A   Partly Cloudy
3:53 AM 82.9 °F 90.8 °F 75.9 °F 79% 30.02 in 10.0 mi ESE 9.2 mph - N/A   Partly Cloudy
4:53 AM 82.9 °F 90.8 °F 75.9 °F 79% 30.02 in 10.0 mi ESE 8.1 mph - N/A   Partly Cloudy
5:53 AM 82.9 °F 91.8 °F 77.0 °F 82% 30.04 in 10.0 mi SE 6.9 mph - N/A   Partly Cloudy
6:08 AM 82.4 °F 90.9 °F 77.0 °F 84% 30.05 in 10.0 mi SE 5.8 mph - N/A   Scattered Clouds
6:53 AM 82.9 °F 90.8 °F 75.9 °F 79% 30.06 in 10.0 mi SE 4.6 mph - N/A   Scattered Clouds
7:53 AM 82.0 °F 90.2 °F 77.0 °F 85% 30.08 in 10.0 mi East 5.8 mph - N/A   Scattered Clouds
8:53 AM 86.0 °F 96.9 °F 77.0 °F 74% 30.08 in 10.0 mi ESE 8.1 mph - N/A   Scattered Clouds
9:53 AM 87.1 °F 99.8 °F 78.1 °F 74% 30.10 in 10.0 mi East 9.2 mph - N/A   Scattered Clouds
10:53 AM 88.0 °F 98.5 °F 75.9 °F 67% 30.12 in 10.0 mi East 9.2 mph - N/A   Scattered Clouds
11:53 AM 88.0 °F 100.2 °F 77.0 °F 70% 30.11 in 10.0 mi ESE 11.5 mph - N/A   Scattered Clouds
12:53 PM 90.0 °F 100.2 °F 75.0 °F 61% 30.09 in 10.0 mi ENE 11.5 mph 16.1 mph N/A   Scattered Clouds
1:35 PM 89.6 °F 99.8 °F 75.2 °F 62% 30.10 in 10.0 mi NE 8.1 mph - N/A Thunderstorm Thunderstorm
1:53 PM 89.1 °F 96.0 °F 72.0 °F 57% 30.10 in 10.0 mi NE 12.7 mph - N/A Thunderstorm Thunderstorm
2:53 PM 84.0 °F 90.2 °F 73.0 °F 69% 30.08 in 10.0 mi NE 11.5 mph - N/A Thunderstorm Thunderstorm
3:53 PM 84.0 °F 91.2 °F 73.9 °F 72% 30.05 in 10.0 mi ENE 15.0 mph 21.9 mph N/A Thunderstorm Thunderstorm
4:13 PM 82.4 °F 90.9 °F 77.0 °F 84% 30.05 in 10.0 mi NNE 9.2 mph - 0.01 in   Mostly Cloudy
4:53 PM 84.9 °F 94.1 °F 75.9 °F 74% 30.05 in 10.0 mi East 8.1 mph - 0.01 in   Mostly Cloudy
5:53 PM 87.1 °F 97.3 °F 75.9 °F 69% 30.04 in 10.0 mi East 11.5 mph - N/A   Mostly Cloudy
6:53 PM 84.9 °F 94.1 °F 75.9 °F 74% 30.05 in 10.0 mi East 10.4 mph - N/A   Mostly Cloudy
7:53 PM 82.9 °F 90.8 °F 75.9 °F 79% 30.06 in 10.0 mi East 5.8 mph - N/A   Scattered Clouds
8:53 PM 82.9 °F 90.8 °F 75.9 °F 79% 30.07 in 10.0 mi East 5.8 mph - N/A   Scattered Clouds
9:53 PM 82.9 °F 90.8 °F 75.9 °F 79% 30.08 in 10.0 mi ENE 6.9 mph - N/A   Scattered Clouds
10:02 PM 84.2 °F 92.3 °F 75.2 °F 74% 30.09 in 10.0 mi ENE 5.8 mph - N/A Thunderstorm Thunderstorm
10:18 PM 82.4 °F 89.5 °F 75.2 °F 79% 30.09 in 10.0 mi ENE 4.6 mph - N/A   Clear
10:53 PM 82.9 °F 90.8 °F 75.9 °F 79% 30.09 in 10.0 mi ENE 5.8 mph - N/A   Clear
11:53 PM 82.9 °F 90.2 °F 75.0 °F 77% 30.09 in 10.0 mi East 8.1 mph - N/A   Clear